This is the latest recevied weather packets stored in our database for station/object W0WC. If no packets are shown the sender has not sent any weather packets the latest 10 day(s).
| Time | Temp. | Humidity | Pressure | Rain* | Wind** | Luminosity | Snow |
|---|---|---|---|---|---|---|---|
| 1788136023 | 96° F | 33% | 760.3 mmHg | 0 in | - | 21 W/m² | - |
| 1788135718 | 97° F | 32% | 760.4 mmHg | 0 in | - | 26 W/m² | - |
| 1788135414 | 97° F | 32% | 760.3 mmHg | 0 in | - | 35 W/m² | - |
| 1788135109 | 97° F | 32% | 760.3 mmHg | 0 in | - | 41 W/m² | - |
| 1788134806 | 97° F | 32% | 760.3 mmHg | 0 in | - | 48 W/m² | - |
| 1788134506 | 98° F | 31% | 760.4 mmHg | 0 in | - | 59 W/m² | - |
| 1788134204 | 98° F | 31% | 760.5 mmHg | 0 in | - | 74 W/m² | - |
| 1788133900 | 98° F | 31% | 760.3 mmHg | 0 in | - | 88 W/m² | - |
| 1788133595 | 98° F | 31% | 760.3 mmHg | 0 in | - | 102 W/m² | - |
| 1788133290 | 99° F | 30% | 760.4 mmHg | 0 in | - | 109 W/m² | - |
| 1788132986 | 99° F | 31% | 760.3 mmHg | 0 in | - | 126 W/m² | - |
| 1788132681 | 99° F | 30% | 760.3 mmHg | 0 in | - | 136 W/m² | - |
| 1788132377 | 100° F | 30% | 760.3 mmHg | 0 in | - | 152 W/m² | - |
| 1788132073 | 100° F | 29% | 760.4 mmHg | 0 in | - | 158 W/m² | - |
| 1788131768 | 100° F | 29% | 760.3 mmHg | 0 in | - | 178 W/m² | - |
| 1788131468 | 100° F | 29% | 760.4 mmHg | 0 in | - | 204 W/m² | - |
| 1788131163 | 100° F | 28% | 760.3 mmHg | 0 in | - | 214 W/m² | - |
| 1788130858 | 101° F | 29% | 760.6 mmHg | 0 in | - | 238 W/m² | - |
| 1788130553 | 100° F | 30% | 760.3 mmHg | 0 in | - | 247 W/m² | - |
| 1788130253 | 100° F | 30% | 760.3 mmHg | 0 in | - | 255 W/m² | - |
| 1788129951 | 100° F | 30% | 760.3 mmHg | 0 in | - | 272 W/m² | - |
| 1788129649 | 99° F | 31% | 760.3 mmHg | 0 in | - | 283 W/m² | - |
| 1788129346 | 99° F | 31% | 760.3 mmHg | 0 in | - | 251 W/m² | - |
| 1788129045 | 100° F | 30% | 760.4 mmHg | 0 in | - | 209 W/m² | - |
| 1788128739 | 100° F | 30% | 760.3 mmHg | 0 in | - | 211 W/m² | - |
* Rain latest hour (hover to see other rain measurements)
** Current wind speed in m/s (hover to see current wind gust speed)